CAPE
0 0 0 150 844 828 822 592 541 677 683 799 692 718 550 489 382 271 181 216 86 27
1 0 169 657 743 541 431 465 330 460 565 684 855 808 586 467 500 302 49 31 0 0
186 103 555 663 654 612 553 642 382 442 613 823 836 689 553 396 374 266 20 0 0 0
856 829 698 717 621 579 480 475 490 521 666 721 650 413 406 327 214 179 11 0 0 0
1332 876 687 601 632 568 451 473 677 774 798 754 545 278 249 151 95 55 14 0 0 0
1356 1165 895 1034 980 770 663 644 759 695 639 595 527 264 61 79 50 38 0 0 0 0
1419 1262 1105 1313 1139 879 771 723 522 494 444 376 243 62 26 0 0 0 0 0 15 19
1001 866 723 661 475 387 317 278 21 0 2 18 45 40 168 78 0 0 0 0 2 33
707 514 220 39 0 0 0 0 0 0 0 0 0 1 0 0 0 0 0 0 0 0
373 222 68 0 0 0 0 0 0 0 0 0 0 0 0 0 0 0 0 0 0 14
212 74 0 0 0 0 14 8 4 0 0 0 1 0 0 0 0 0 0 0 13 16
6 0 16 50 17 31 52 5 0 0 0 0 0 1 0 0 0 0 1 1 15 5
5 23 45 46 25 8 0 0 0 0 0 1 0 2 0 0 0 0 0 0 0 0
11 18 32 20 7 0 3 0 0 0 0 0 0 1 0 0 0 0 0 0 0 0
CIN
-0 -0 -0 -484 -347 -304 -307 -380 -356 -296 -261 -194 -205 -196 -246 -256 -265 -252 -238 -185 -231 -241
-98 -12 -492 -404 -370 -395 -399 -350 -356 -292 -235 -188 -140 -150 -219 -233 -182 -217 -322 -274 -0 -0
-582 -556 -420 -402 -370 -335 -335 -269 -297 -227 -181 -117 -110 -168 -197 -222 -199 -202 -238 -0 -0 -0
-321 -336 -357 -323 -344 -334 -340 -300 -231 -178 -142 -139 -139 -225 -196 -186 -220 -182 -206 -17 -0 -0
-217 -286 -314 -321 -302 -296 -287 -224 -125 -97 -102 -98 -152 -208 -179 -209 -227 -204 -207 -0 -0 -0
-155 -159 -201 -166 -171 -177 -154 -127 -82 -96 -103 -101 -109 -157 -238 -189 -205 -185 -0 -0 -0 -0
-109 -124 -157 -94 -106 -119 -107 -81 -107 -96 -100 -92 -118 -196 -242 -0 -0 -0 -0 -0 -106 -92
-147 -168 -185 -177 -198 -191 -175 -150 -61 -0 -70 -249 -186 -147 -75 -93 -0 -0 -0 -0 -20 -95
-157 -173 -273 -387 -0 -0 -0 -0 -0 -0 -0 -0 -0 -0 -0 -0 -0 -0 -0 -0 -0 -0
-171 -191 -281 -0 -0 -0 -0 -0 -0 -0 -0 -0 -0 -0 -0 -0 -0 -0 -0 -0 -0 -117
-148 -219 -0 -0 -0 -0 -279 -193 -101 -0 -0 -0 -0 -0 -0 -0 -0 -0 -0 -0 -50 -106
-41 -6 -63 -245 -111 -306 -244 -167 -0 -0 -0 -0 -0 -0 -0 -0 -0 -0 -0 -21 -100 -144
-34 -75 -215 -253 -104 -137 -7 -3 -0 -0 -0 -0 -0 -0 -0 -0 -0 -0 -0 -0 -0 -0
-41 -65 -76 -101 -130 -11 -100 -21 -0 -0 -0 -0 -0 -0 -0 -0 -0 -0 -0 -0 -0 -0
Wind_Speed
11 8 7 7 5 5 6 6 7 7 6 6 6 6 6 4 4 6 4 7 4 3
9 8 8 8 6 5 6 5 6 7 8 7 7 6 7 5 5 5 5 5 5 3
10 8 7 8 9 9 7 8 8 6 7 7 6 7 7 5 5 6 4 3 6 4
7 8 8 8 9 9 8 8 7 6 6 7 7 7 7 5 6 6 6 5 6 6
10 9 9 8 9 9 7 7 8 7 7 8 8 7 6 6 6 7 7 6 6 6
11 11 9 10 10 10 9 8 8 9 9 9 9 7 6 7 7 6 7 7 6 6
10 11 10 10 11 11 10 10 9 8 9 9 7 6 6 6 6 6 6 6 6 6
10 11 11 12 11 10 10 9 7 7 6 6 6 3 6 6 6 6 5 5 5 5
12 12 12 11 10 10 9 9 9 7 7 8 5 4 7 7 5 6 6 5 3 3
13 12 11 10 10 8 8 8 8 8 7 6 5 4 6 7 5 5 5 6 5 4
13 11 10 8 8 8 8 10 8 7 7 6 3 3 7 8 5 5 3 6 6 7
11 9 10 11 9 8 10 9 6 5 7 8 4 4 8 8 6 5 5 5 4 7
11 10 10 11 10 5 7 8 7 7 5 7 6 6 7 6 4 6 5 5 6 8
12 11 11 10 8 7 9 9 8 8 5 6 5 4 5 6 4 5 5 4 3 3
Wind_Direction
200 199 193 172 166 175 179 161 149 145 142 158 165 150 154 141 144 150 168 171 134 145
189 175 179 158 150 158 144 139 134 142 158 165 146 140 142 135 152 142 141 159 161 146
174 161 142 142 151 159 145 137 153 173 169 157 136 144 136 143 148 141 155 151 154 173
140 134 140 151 152 154 140 142 152 161 143 128 134 136 140 152 147 155 157 161 169 173
135 137 139 144 142 134 132 136 147 141 133 143 139 144 148 155 153 160 173 175 171 183
140 145 150 148 139 138 138 139 133 136 138 138 149 154 159 159 166 175 177 180 184 187
141 145 140 139 141 136 137 133 133 138 140 152 159 150 162 163 166 174 186 191 195 183
126 122 122 119 119 121 126 130 120 107 101 115 118 131 165 171 176 182 186 197 191 196
113 112 110 111 114 116 106 111 109 104 113 111 102 93 133 152 155 167 167 169 130 144
122 122 121 120 112 107 115 110 103 103 103 99 108 114 132 156 144 143 170 162 146 150
129 132 120 114 111 109 123 120 118 108 111 113 106 106 120 117 107 104 135 155 158 111
140 120 115 120 122 118 115 107 108 126 117 117 106 95 97 96 91 87 72 87 109 129
122 119 127 132 127 125 108 116 113 101 98 113 106 81 100 103 117 102 92 57 80 94
136 133 141 132 126 112 114 113 111 107 97 102 97 92 109 124 105 119 109 106 96 86